Kinetic One Castle Combe TT - Race 2
Skip Navigation Links
Results
DB Max TT Series
Smartphone Results
13 May 2015
HyperLink
Page 1 of 1 (47 items)
Pos
Bib No
Fav
Share
Name
Time
Category
Cat Pos
Gender
Gen Pos
Club
Pace
Wave
Split 1
G/Pos
Lap 1
G/Pos
Lap 2
G/Pos
Lap 3
G/Pos
Lap 4
G/Pos
Lap 5
G/Pos
157Ben ANSTIE20:49.25Sen1Male173 Degrees28.8 m/hr19:28:301:40.7623:47.9617:36.21111:28.39115:20.61119:08.491
258Niall TODD21:09.31Sen2Male2Tavistock Wheelers CC28.4 m/hr19:29:001:42.3533:49.6027:40.92211:37.17215:32.94219:26.962
359Robert ABRAHAM21:50.84Sen3Male3 27.5 m/hr19:29:301:40.7413:56.7337:57.73312:00.47316:06.37420:10.103
451Martin ALDAM22:14.78Vet1Male4Frome And District Wheelers27.0 m/hr19:25:301:46.5853:59.2748:00.64412:06.10416:18.25520:28.206
550Jon PRIDHAM22:17.59Vet2Male5Vectis Roads Cycling Club (VRCC)26.9 m/hr19:25:001:46.1344:00.9758:13.86512:21.83516:23.82320:31.464
638Ross BURY23:04.59Vet3Male6Bristol Road Club26.0 m/hr19:19:001:48.08104:16.0998:30.52712:46.97717:03.54821:16.517
744Ben SKINNER23:09.08Sen4Male7Vibe Fitness25.9 m/hr19:22:001:47.7084:13.3888:27.65612:46.831017:06.70921:21.388
841James EACOTT23:09.30Sen5Male8Bath Amphibians25.9 m/hr19:20:301:50.60154:21.75128:40.131012:54.86617:08.79621:18.695
92Andy MORGAN23:10.50Vet4Male9Kinetic One25.9 m/hr19:01:001:47.5474:11.9668:28.61812:47.53917:04.09721:22.9611
1043Rob HALL23:19.57Vet5Male10Saltford and Keynsham CC25.7 m/hr19:21:301:53.14174:13.0678:31.30912:49.42817:09.771021:26.4210
1139Ian MOORE23:36.14SupVet1Male11Cycology Bikes25.4 m/hr19:19:301:49.10134:22.06148:44.891313:06.001117:26.741121:47.0312
1242Danny LAKE23:36.50Vet6Male12 25.4 m/hr19:21:001:47.4364:17.03108:38.071213:02.201317:26.461321:49.0713
1354Paul LAMBERT23:41.01Vet7Male13Chippenham Wheelers25.3 m/hr19:27:001:56.61224:23.11158:43.031113:06.881217:29.261221:44.409
1418Mike MILSTEAD23:55.81Sen6Male14SMaRTT25.1 m/hr19:09:001:49.85144:17.58118:42.131413:12.451717:42.621522:05.9514
1529Paul CARTER24:08.06Vet8Male15Avon Valley Triathletes24.9 m/hr19:14:301:48.86124:25.63168:56.071613:25.491617:52.061422:19.2015
1634Sian CAHILL24:14.17Sen1Female1Zappi's Racing Team24.8 m/hr19:17:001:55.9914:26.7518:55.14113:23.15117:51.10122:18.181
1733Martin NEILL24:22.28Vet9Male16Flying Monk Triathlon Club24.6 m/hr19:16:301:51.76164:21.89138:54.241813:26.171817:59.541622:30.5216
1840Mike COX24:30.81SupVet2Male17Chippenham Tri24.5 m/hr19:20:001:54.69194:32.82199:01.321513:28.441518:02.021722:36.1219
199Jonathan SINCLAIR24:33.78SupVet3Male18 24.4 m/hr19:04:301:54.62184:35.21209:07.411713:32.401418:08.131922:39.1618
2021Ray PERKINS24:53.88SupVet4Male19Psyclewerx24.1 m/hr19:10:301:58.66294:36.93239:13.152013:50.211918:24.201822:55.2117
2131Fiona NESFIELD25:01.37Sen2Female2Mike Vaughan Cycles24.0 m/hr19:15:301:57.8724:31.2129:09.84213:46.52218:28.79223:03.502
224Sam KENYON25:07.49Vet10Male20Flying Monk Triathlon Club23.9 m/hr19:02:001:56.38214:31.00179:08.422113:45.902018:28.402523:11.1127
2337Frank CARTER25:07.72Sen7Male21 23.9 m/hr19:18:301:48.84114:32.10189:07.851913:53.212718:34.762423:18.8828
2425Clive SHIPWAY25:11.22Sen8Male22SRC23.8 m/hr19:12:301:47.9094:42.55259:28.982914:07.402118:45.932223:23.3122
2530Graham JONES25:18.03SupVet5Male23Bath Cc23.7 m/hr19:15:001:54.75204:36.02219:20.012714:04.562618:45.282323:23.2823
2628John KINGWELL25:23.24Vet11Male24Avon Valley Triathletes23.6 m/hr19:14:001:58.06254:46.52299:29.432414:11.952318:49.122023:25.1820
2714Pete WOOD25:24.01Sen9Male25 23.6 m/hr19:07:001:59.79324:36.88229:17.692213:57.282218:41.612623:24.2226
2819Matthew TIBBLES25:33.31Sen10Male26 23.5 m/hr19:09:301:57.77234:44.61269:26.722314:12.202818:58.882823:35.5421
2935Robin FOX25:34.82SupVet6Male27Drc23.5 m/hr19:17:302:04.00364:44.63279:30.662814:14.292418:52.252123:30.8224
3056Mark EVANS25:38.17SupVet7Male28Flying Monk23.4 m/hr19:31:302:04.36384:39.38249:22.882514:07.142518:53.742723:33.8125
3126Will WHITMORE26:16.67Vet12Male29DB Max22.8 m/hr19:13:001:58.61284:48.60309:41.423114:34.113019:28.263024:18.0629
3227Nigel EVANS26:18.78Vet13Male30Avon Valley Triathletes22.8 m/hr19:13:301:59.61314:45.70289:37.963014:30.873119:26.973124:19.1632
3336Mark CARTER26:20.59SupVet8Male31Hot Chilli22.8 m/hr19:18:002:02.73344:48.74319:32.472614:23.552919:15.482924:17.8633
3413Kate DERRICK26:39.15Sen3Female3Westonbirt Tri Club22.5 m/hr19:06:302:02.9134:59.3439:52.45314:47.30319:46.22324:36.243
3512George SCULLY26:40.33SupVet601Male32Gloucester City Cycling Club22.5 m/hr19:06:001:59.39304:57.65339:53.833214:50.793219:49.953224:40.9330
368James CANFER26:43.28Sen11Male33 22.5 m/hr19:04:001:58.49274:49.76329:50.213314:48.513319:52.883324:44.7831
3723Stephen TURTLE27:10.45Vet14Male34Swindon Striders22.1 m/hr19:11:301:58.36264:58.71349:59.233415:03.713420:09.143425:12.0934
3817Stephen PROVIS28:22.18SupVet9Male35 21.1 m/hr19:08:301:57.92245:10.423610:28.143515:51.093821:10.083526:24.2637
397Simon CANFER28:22.66Vet15Male36 21.1 m/hr19:03:302:03.26355:10.983710:28.793615:51.083721:12.693726:19.4035
4022Malcolm SHIPWAY28:27.16SupVet602Male37Flexifill@me.com21.1 m/hr19:11:002:02.21335:08.863510:29.463715:45.293521:09.803826:24.9538
4124Kieron PAYNE28:58.96Sen12Male38Bike Station Uk20.7 m/hr19:12:002:04.32375:11.393810:34.543815:58.753921:30.473926:54.6439
425Dave HARMER29:14.96SupVet10Male39 20.5 m/hr19:02:302:28.87405:30.693910:55.143916:15.853621:36.143626:46.0936
4316Bethan RHODES29:15.65Sen4Female4 20.5 m/hr19:08:002:16.2155:25.82410:44.06416:10.70421:38.78526:59.444
443Jess KENYON30:19.60Jun1Female5Flying Monk Triathlon Club19.8 m/hr19:01:302:19.9065:41.50511:26.85617:10.61622:37.45427:59.705
4515Mary DERRICK30:37.05SupVet1Female6Westonbirt Tri Club19.6 m/hr19:07:302:12.4645:42.08611:20.68517:01.87522:40.99628:24.596
4611Paul BURGESS31:43.98SupVet11Male40FRAMPTON COTTERELL HARRIERS18.9 m/hr19:05:302:27.52395:46.314011:39.874017:38.004023:34.434029:16.4640
4710Vicky ODY33:44.28Vet1Female7Avon Valley Triathletes17.8 m/hr19:05:002:41.2776:08.21712:20.73718:39.37724:48.93731:03.007
Page 1 of 1 (47 items)
fb

HyperLink Copyright (c) G Vincent, 2018